Cayucos

United States     35˚25′39″N   120˚52′22″W
temp.,
°C
wind,
m/s
gust,
m/s
humid.,
%
clouds,
%
prec.,
mm/h
press.,
hPa
HPBL,
m
30 november, mon
mon3001:00+9˚nne225472 0.0 102227
04:00+8˚ne225467 0.0 102330
07:00+7˚nne23571 0.0 102333
10:00+15˚nne36331 0.0 1024364
13:00+20˚ne57220 0.0 1021657
16:00+18˚ne36270 0.0 1022239
19:00+12˚ene35410 0.0 1022100
22:00+10˚ne36440 0.0 1023152
1 december, tue
tue101:00+9˚nne33460 0.0 102344
04:00+9˚nne33440 0.0 102356
07:00+7˚ne33510 0.0 102154
10:00+15˚ne46340 0.0 1022412
13:00+20˚ne46240 0.0 1019554
16:00+18˚ene48270 0.0 1018404
19:00+11˚ne33400 0.0 101851
22:00+10˚ne234518 0.0 101938
2 december, wed
wed201:00+9˚ne2245100 0.0 101838
04:00+9˚ne2246100 0.0 101833
07:00+8˚ne224852 0.0 101839
10:00+16˚ne233127 0.0 1018324
13:00+21˚nne222229 0.0 1017512
16:00+18˚nne113317 0.0 101636
19:00+12˚ene23408 0.0 101743
22:00+11˚ne234319 0.0 101930
3 december, thu
thu301:00+10˚ne224696 0.0 101928
04:00+9˚ne225071 0.0 102023
07:00+8˚ne22540 0.0 102124
10:00+17˚e11300 0.0 1022288
13:00+20˚sw35220 0.0 1021745
16:00+15˚sw37380 0.0 1021453
19:00+9˚sse126269 0.0 102223
22:00+9˚e123977 0.0 102323
4 december, fri
fri401:00+9˚ene113494 0.0 102222
04:00+8˚nne123488 0.0 102322
07:00+7˚ne12410 0.0 102323
10:00+16˚ne12190 0.0 1024329
13:00+20˚wsw11160 0.0 1022737
16:00+17˚ene59130 0.0 1023405
19:00+10˚ene34190 0.0 102481
22:00+9˚ne33230 0.0 102544